Location: Andrest
(43.3200°N, 0.0641°E)
Time: 19:53:54
(UTC+00:00)

Cosmos 2341 Rocket - Pass Details

Date: 01 December 2020
Orbit: 969 x 1003 km, 82.9° (Epoch: 21 January)

Event Time Altitude Azimuth Distance (km) Brightness Sun altitude
Rises 17:15:41 0° 350° (N) 3,700 6.9 -9.1°
Reaches altitude 10° 17:18:12 10° 350° (N) 2,753 6.3 -9.5°
Maximum altitude 17:24:31 80° 265° (W) 1,012 4.2 -10.6°
Drops below altitude 10° 17:30:51 10° 179° (S) 2,757 6.6 -11.7°
Sets 17:33:22 0° 178° (S) 3,706 7.3 -12.1°
